[[{"header":{"parameterUnit":"m.s-1","parameterCategory":1,"la1":30.2991,"la2":30.254,"lo1":-89.0895,"lo2":-89.0444,"dy":0.0017,"dx":0.0017,"nx":28,"ny":28,"refTime":"2024-06-30T21:00:00:Z","depth":0,"parameterNumber":2,"parameterNumberName":"U-component_of_WINDS"},"data":[0,0,0,0,0,0,0,0,0,0,0,0,0,0,0,0,0,0,0,0,0,0,0,0,0,0,0,0,0,0,0,0,0,0,0,0,0,0,0,0,0,0,0,0,0,0,0,0,0,0,0,0,0,0,0,0,0,0,-0.2626,-0.2625,0,-0.2468,-0.2466,-0.2464,-0.2394,-0.2394,-0.2395,-0.2395,-0.2224,-0.2219,-0.2215,0,0,0,0,0,0,0,0,0,0,0,0,0,-0.2858,-0.2854,-0.2627,-0.2625,-0.2623,-0.2468,-0.2466,-0.2464,-0.2394,-0.2394,-0.2395,-0.2395,-0.2226,-0.222,-0.2214,0,0,0,0,0,0,0,0,0,0,0,0,0,-0.2734,-0.2853,-0.2627,-0.2569,-0.2563,-0.2469,-0.2466,-0.2463,-0.2394,-0.2394,-0.2395,-0.2395,-0.2227,-0.2221,-0.2214,-0.2162,0,0,-0.2192,-0.2189,0,0,0,0,0,0,0,0,-0.2742,-0.2726,-0.258,-0.2573,-0.2566,-0.2451,-0.2485,-0.2362,-0.2394,-0.2458,-0.2395,-0.2395,-0.2299,-0.2286,-0.2255,-0.2154,-0.2147,-0.2191,-0.2187,-0.2184,-0.2182,0,0,0,0,0,0,0,-0.275,-0.2732,-0.2564,-0.2578,-0.2569,-0.2548,-0.2531,-0.2461,-0.2378,-0.2452,-0.2447,-0.2429,-0.2295,-0.2262,-0.2251,-0.2145,-0.2191,-0.2185,-0.218,-0.2178,-0.1989,-0.1988,0,0,0,0,0,0,-0.277,-0.274,-0.2569,-0.2559,-0.2656,-0.2544,-0.2524,-0.2487,-0.2379,-0.2363,-0.2429,-0.2427,-0.2274,-0.2259,-0.2244,-0.2175,-0.2184,-0.2177,-0.2173,-0.1989,-0.1988,-0.1988,0,0,0,0,0,0,-0.2775,-0.2755,-0.2575,-0.2648,-0.2623,-0.2539,-0.2498,-0.2484,-0.2451,-0.2361,-0.2345,-0.2412,-0.2274,-0.2254,-0.2183,-0.2168,-0.2174,-0.2167,-0.199,-0.1989,-0.1988,-0.2037,0,0,0,0,0,0,-0.2782,-0.2757,-0.274,-0.2648,-0.262,-0.252,-0.2498,-0.2481,-0.244,-0.2435,-0.2341,-0.2325,-0.2273,-0.2194,-0.2176,-0.2158,-0.2162,-0.1991,-0.199,-0.1988,-0.2037,-0.2038,-0.2039,0,0,0,0,0,-0.279,-0.2759,-0.274,-0.2719,-0.2597,-0.2519,-0.2503,-0.2445,-0.244,-0.2419,-0.236,-0.2328,-0.2172,-0.2187,-0.2166,-0.2146,-0.1992,-0.199,-0.1988,-0.2036,-0.2038,-0.2039,0,0,0,0,0,0,-0.285,-0.2746,-0.2723,-0.2662,-0.26,-0.2508,-0.2481,-0.2449,-0.2386,-0.2384,-0.2312,-0.2291,-0.2225,-0.2178,-0.2196,-0.2088,-0.2079,-0.2073,-0.2122,-0.2123,-0.2124,-0.2137,-0.2156,0,0,0,0,0,-0.2856,-0.2805,-0.2716,-0.267,-0.2641,-0.2566,-0.253,-0.2491,-0.2423,-0.2396,-0.2332,-0.2264,-0.2199,-0.2158,-0.2094,-0.2029,-0.2005,-0.2004,-0.2006,-0.2007,-0.2003,-0.1961,-0.1958,-0.1982,-0.1982,-0.1982,0,0,-0.2868,-0.2805,-0.2777,-0.2681,-0.2628,-0.2573,-0.2545,-0.2489,-0.2446,-0.2386,-0.2315,-0.2265,-0.2185,-0.2115,-0.2081,-0.2074,-0.199,-0.2005,-0.2007,-0.2001,-0.1959,-0.1957,-0.1955,-0.1981,-0.1981,-0.1981,0,0,-0.2862,-0.2811,-0.2766,-0.2714,-0.2635,-0.2585,-0.2574,-0.2485,-0.245,-0.2378,-0.2331,-0.2277,-0.2168,-0.2112,-0.2069,-0.2037,-0.2003,-0.2017,-0.2024,-0.1984,-0.1982,-0.198,-0.1967,-0.1963,-0.2013,-0.2013,-0.2013,0,-0.2887,-0.2806,-0.2746,-0.2692,-0.2649,-0.2594,-0.2546,-0.2497,-0.24,-0.237,-0.2363,-0.2223,-0.2165,-0.208,-0.2072,-0.204,-0.2022,-0.2029,-0.1988,-0.1985,-0.1982,-0.1968,-0.1964,-0.2015,-0.2015,-0.2015,-0.2015,0,-0.2838,-0.2782,-0.2754,-0.2664,-0.2618,-0.2567,-0.2496,-0.2456,-0.2419,-0.2369,-0.2293,-0.2221,-0.214,-0.2116,-0.2079,-0.2024,-0.2022,-0.2003,-0.1991,-0.1983,-0.1969,-0.1963,-0.2019,-0.2018,-0.2017,-0.2017,0,0,-0.2868,-0.2744,-0.2735,-0.2692,-0.2599,-0.2552,-0.2496,-0.2419,-0.2384,-0.2317,-0.2266,-0.2173,-0.2154,-0.2105,-0.2061,-0.2026,-0.2001,-0.201,-0.2006,-0.201,-0.1932,-0.1948,-0.1943,-0.1978,-0.1977,-0.1976,-0.1939,0,-0.2848,-0.275,-0.2693,-0.2617,-0.2562,-0.2506,-0.2456,-0.2392,-0.2342,-0.2284,-0.2227,-0.2162,-0.2143,-0.2112,-0.2075,-0.2013,-0.1985,-0.2014,-0.1927,-0.1924,-0.1949,-0.1935,-0.1952,-0.1921,-0.1933,-0.1932,-0.1931,0,-0.2814,-0.275,-0.2669,-0.2579,-0.2554,-0.2511,-0.2433,-0.2381,-0.2304,-0.2269,-0.2213,-0.2168,-0.2102,-0.2096,-0.2002,-0.2023,-0.1983,-0.1946,-0.1943,-0.1933,-0.1928,-0.1924,-0.1909,-0.1905,-0.1922,-0.1923,-0.1923,0,-0.2842,-0.2736,-0.2673,-0.2637,-0.2532,-0.2502,-0.2456,-0.238,-0.2335,-0.2266,-0.2235,-0.2158,-0.2116,-0.2055,-0.1988,-0.199,-0.1899,-0.1888,-0.1866,-0.1867,-0.185,-0.1852,-0.1829,-0.1825,-0.1825,-0.1825,-0.1825,0,-0.2827,-0.2779,-0.2684,-0.2645,-0.2588,-0.252,-0.2464,-0.2412,-0.2344,-0.2291,-0.2236,-0.2187,-0.2103,-0.2041,-0.1988,-0.1916,-0.1897,-0.1865,-0.1851,-0.187,-0.1874,-0.1843,-0.1843,-0.1824,-0.1824,-0.1824,-0.1825,0,-0.285,-0.2785,-0.2712,-0.2617,-0.2591,-0.2553,-0.247,-0.2427,-0.2373,-0.2306,-0.2286,-0.22,-0.2125,-0.2052,-0.1951,-0.1914,-0.1842,-0.1825,-0.1869,-0.1862,-0.1843,-0.1846,-0.1799,-0.1788,-0.1793,-0.1793,-0.1793,0,-0.2845,-0.2806,-0.2707,-0.2669,-0.2625,-0.2564,-0.2518,-0.2448,-0.2402,-0.2309,-0.2277,-0.2198,-0.2131,-0.2012,-0.1938,-0.1858,-0.1838,-0.1826,-0.1825,-0.1844,-0.1836,-0.1839,-0.1833,-0.1828,-0.1829,-0.1829,-0.1829,0,-0.2841,-0.281,-0.2749,-0.2675,-0.2623,-0.256,-0.2495,-0.2466,-0.2382,-0.2333,-0.2256,-0.2204,-0.21,-0.202,-0.1932,-0.1879,-0.1839,-0.183,-0.182,-0.1839,-0.1866,-0.1849,-0.1873,-0.1832,-0.1831,-0.1831,-0.1831,-0.1831,-0.2849,-0.2811,-0.2735,-0.2667,-0.2611,-0.2551,-0.2506,-0.2446,-0.2382,-0.2294,-0.2255,-0.2177,-0.2095,-0.1972,-0.192,-0.1854,-0.1845,-0.1831,-0.1828,-0.1825,-0.1829,-0.1877,-0.1837,-0.1837,-0.1837,-0.1837,-0.1837,0,-0.2842,-0.279,-0.2728,-0.264,-0.2585,-0.2554,-0.2479,-0.2434,-0.2367,-0.2296,-0.2231,-0.2141,-0.2062,-0.1981,-0.1897,-0.1859,-0.1838,-0.1839,-0.1841,-0.1829,-0.1843,-0.1859,-0.1858,-0.1858,-0.1858,-0.1858,-0.1858,-0.1858,-0.2832,-0.2766,-0.2725,-0.2629,-0.2575,-0.2501,-0.2461,-0.2403,-0.2346,-0.2248,-0.2184,-0.2132,-0.2055,-0.1964,-0.1889,-0.1866,-0.1837,-0.1843,-0.1815,-0.183,-0.1829,-0.1828,-0.1842,-0.1838,-0.1838,-0.1807,-0.1806,-0.1806]},{"header":{"parameterUnit":"m.s-1","parameterCategory":1,"la1":30.2991,"la2":30.254,"lo1":-89.0895,"lo2":-89.0444,"dy":0.0017,"dx":0.0017,"nx":28,"ny":28,"refTime":"2024-06-30T21:00:00:Z","depth":0,"parameterNumber":3,"parameterNumberName":"V-component_of_WINDS"},"data":[0,0,0,0,0,0,0,0,0,0,0,0,0,0,0,0,0,0,0,0,0,0,0,0,0,0,0,0,0,0,0,0,0,0,0,0,0,0,0,0,0,0,0,0,0,0,0,0,0,0,0,0,0,0,0,0,0,0,2.1358,2.1358,0,2.1361,2.1361,2.1361,2.1329,2.1328,2.1327,2.1326,2.1327,2.1328,2.1328,0,0,0,0,0,0,0,0,0,0,0,0,0,2.1324,2.1325,2.1358,2.1358,2.1358,2.1361,2.1361,2.1361,2.1329,2.1328,2.1327,2.1326,2.1326,2.1327,2.1328,0,0,0,0,0,0,0,0,0,0,0,0,0,2.1334,2.1325,2.1358,2.1343,2.1341,2.1361,2.1361,2.1361,2.1329,2.1328,2.1327,2.1326,2.1326,2.1327,2.1329,2.1362,0,0,2.1332,2.1333,0,0,0,0,0,0,0,0,2.1334,2.1335,2.1345,2.1344,2.1342,2.1343,2.1349,2.1361,2.133,2.1334,2.1326,2.1325,2.1333,2.1334,2.1337,2.1362,2.1362,2.1332,2.1333,2.1334,2.1334,0,0,0,0,0,0,0,2.1333,2.1335,2.1359,2.1345,2.1343,2.1335,2.1335,2.1351,2.1341,2.1333,2.1331,2.1332,2.1332,2.1336,2.1337,2.1362,2.1332,2.1333,2.1334,2.1335,2.1416,2.1417,0,0,0,0,0,0,2.1335,2.1335,2.1359,2.1359,2.1335,2.1337,2.1337,2.1344,2.134,2.1339,2.1333,2.133,2.1334,2.1335,2.1337,2.1376,2.1334,2.1335,2.1335,2.1415,2.1416,2.1418,0,0,0,0,0,0,2.1334,2.1337,2.1359,2.1346,2.1348,2.1339,2.1347,2.1345,2.1348,2.134,2.1338,2.1339,2.1333,2.1335,2.1356,2.1375,2.1335,2.1336,2.1413,2.1415,2.1417,2.1455,0,0,0,0,0,0,2.1333,2.1337,2.1349,2.1347,2.1349,2.1379,2.1348,2.1346,2.1351,2.1348,2.1345,2.1343,2.1332,2.1355,2.1358,2.1376,2.1337,2.1411,2.1414,2.1416,2.1452,2.1458,2.1463,0,0,0,0,0,2.1332,2.1359,2.135,2.1353,2.1365,2.138,2.1381,2.1369,2.1353,2.1365,2.136,2.1343,2.1373,2.1357,2.136,2.138,2.141,2.1413,2.1416,2.1449,2.1456,2.1463,0,0,0,0,0,0,2.1362,2.1358,2.1348,2.1375,2.1379,2.1374,2.1389,2.1377,2.1384,2.138,2.1364,2.1364,2.1388,2.1386,2.1368,2.1413,2.1389,2.1393,2.1413,2.142,2.1425,2.1425,2.1338,0,0,0,0,0,2.1373,2.1386,2.1381,2.1405,2.1408,2.1399,2.1405,2.1396,2.1397,2.1398,2.1394,2.1397,2.1407,2.1413,2.1422,2.1452,2.1451,2.1467,2.1473,2.1477,2.148,2.1497,2.1504,2.1428,2.1428,2.1428,0,0,2.1393,2.1392,2.1401,2.1412,2.1413,2.1427,2.14,2.1415,2.1425,2.14,2.142,2.1418,2.1419,2.1446,2.1457,2.1445,2.1502,2.1482,2.1485,2.1486,2.1501,2.1508,2.1515,2.1431,2.143,2.143,0,0,2.1437,2.1438,2.1459,2.1461,2.1464,2.1459,2.1464,2.1463,2.1461,2.1481,2.1463,2.1475,2.1492,2.1494,2.1498,2.1546,2.1531,2.1549,2.1579,2.1595,2.1601,2.1606,2.1623,2.163,2.1553,2.1553,2.1553,0,2.1461,2.1482,2.1471,2.1488,2.1493,2.1474,2.1495,2.1498,2.1503,2.1507,2.1494,2.1516,2.1516,2.1543,2.1555,2.1558,2.1563,2.1549,2.1601,2.1606,2.1611,2.1627,2.1634,2.1555,2.1555,2.1555,2.1555,0,2.1512,2.1527,2.1543,2.1551,2.1558,2.1577,2.1569,2.1578,2.1569,2.1565,2.1587,2.1586,2.1595,2.1601,2.1591,2.1627,2.1619,2.1604,2.1579,2.1621,2.1635,2.1642,2.1558,2.1558,2.1557,2.1556,0,0,2.1571,2.1576,2.1582,2.1586,2.1589,2.16,2.1619,2.1629,2.1637,2.1642,2.1657,2.1674,2.1661,2.1664,2.1655,2.167,2.1709,2.1653,2.1653,2.1663,2.1748,2.1759,2.1766,2.17,2.1701,2.1702,2.1748,0,2.1614,2.1647,2.1639,2.1672,2.1686,2.1669,2.1686,2.169,2.1687,2.1698,2.1695,2.1707,2.1689,2.1691,2.1705,2.1701,2.1726,2.1698,2.1713,2.1714,2.1712,2.1774,2.1785,2.1828,2.1754,2.1755,2.1755,0,2.1667,2.1677,2.1711,2.1715,2.172,2.1735,2.1745,2.1756,2.176,2.1758,2.1764,2.1753,2.1771,2.1748,2.1774,2.1755,2.1761,2.1761,2.1762,2.1762,2.1736,2.1774,2.1842,2.1848,2.1764,2.1764,2.1763,0,2.1708,2.1729,2.1752,2.1756,2.1761,2.1772,2.1774,2.1778,2.1785,2.1793,2.1798,2.1808,2.1813,2.1821,2.1813,2.1797,2.184,2.1816,2.1838,2.1838,2.1846,2.1845,2.1914,2.1852,2.1852,2.1852,2.1851,0,2.1755,2.1776,2.1771,2.1785,2.1809,2.1801,2.1825,2.1825,2.1829,2.1842,2.1829,2.1842,2.1831,2.1844,2.1838,2.186,2.1862,2.186,2.1858,2.1861,2.1861,2.1863,2.186,2.1853,2.1853,2.1853,2.1852,0,2.1802,2.18,2.1824,2.1828,2.1829,2.1847,2.1849,2.1863,2.1861,2.1879,2.1882,2.1878,2.1893,2.1886,2.19,2.1897,2.1925,2.1919,2.1924,2.1922,2.1943,2.1941,2.2015,2.2024,2.1957,2.1958,2.1958,0,2.1832,2.1849,2.1855,2.1864,2.1868,2.1883,2.1891,2.1884,2.1893,2.1901,2.1914,2.1927,2.1937,2.1961,2.1959,2.197,2.1964,2.1989,2.1965,2.1968,2.1963,2.1962,2.1963,2.1993,2.1994,2.1994,2.1995,0,2.1885,2.1884,2.1897,2.191,2.1921,2.193,2.1939,2.1947,2.1941,2.1951,2.1967,2.1975,2.1991,2.2004,2.2015,2.2016,2.2004,2.2003,2.2008,2.201,2.2012,2.2011,2.1936,2.2001,2.2,2.2,2.1999,2.1999,2.1924,2.1939,2.1946,2.1962,2.1968,2.1977,2.199,2.1991,2.2004,2.2017,2.2013,2.203,2.2036,2.2049,2.2053,2.2066,2.2056,2.2064,2.2066,2.2068,2.207,2.2012,2.2068,2.2068,2.2068,2.2068,2.2068,0,2.1976,2.1981,2.1996,2.2009,2.2021,2.2012,2.2021,2.2032,2.2048,2.2055,2.2067,2.2085,2.2099,2.2099,2.2112,2.2122,2.2117,2.2126,2.2124,2.2125,2.2079,2.2073,2.213,2.213,2.213,2.213,2.213,2.213,2.2004,2.2029,2.2029,2.2057,2.2061,2.208,2.2086,2.2094,2.21,2.2122,2.2134,2.2135,2.2139,2.2153,2.2165,2.2165,2.2169,2.218,2.2177,2.2134,2.2128,2.2122,2.2116,2.2181,2.2181,2.2222,2.2222,2.2223]}]]